Location: Niles Junction
(37.5763°N, 121.9714°W)
Time: 05:18:10
(UTC+00:00)

ERS-2 - Pass Details

Date: 29 October 2020
Orbit: 493 x 497 km, 98.6° (Epoch: 27 November)

Event Time Altitude Azimuth Distance (km) Brightness Sun altitude
Rises 12:03:52 0° 139° (SE) 2,566 6.2 -29.5°
Reaches altitude 10° 12:06:11 10° 126° (SE) 1,688 5.4 -29.1°
Maximum altitude 12:09:11 25° 70° (ENE) 1,042 4.3 -28.5°
Enters shadow 12:10:26 20° 38° (NE) 1,185 4.4 -28.3°
